• în România
  • Lista ţărilor
  • Pe 7 zile
  • Temperatura apei
  • Hartă satelitară
  • Meteo pe hartă
  • Widget-uri
  • user-avatar
    Intrare

    Meteo pe oră la Gorelskiy

    Astăzi, 24 Septembrie, Luni

    Timp Temperatura Precipitaţii Vânt Presiune Umiditate
    00:00 +9°C° 2.5 mm 6 m/s 748 mmHg 86%
    01:00 +9°C° 0.1 mm 5 m/s 748 mmHg 87%
    02:00 +9°C° 0.1 mm 5 m/s 748 mmHg 87%
    03:00 +10°C° 0.1 mm 4 m/s 748 mmHg 87%
    04:00 +8°C° 0 mm 4 m/s 749 mmHg 89%
    05:00 +9°C° 0 mm 3 m/s 749 mmHg 91%
    06:00 +8°C° 0 mm 3 m/s 749 mmHg 92%
    07:00 +10°C° 0 mm 3 m/s 750 mmHg 87%
    08:00 +11°C° 0 mm 3 m/s 750 mmHg 81%
    09:00 +12°C° 0 mm 3 m/s 750 mmHg 76%
    10:00 +13°C° 0 mm 3 m/s 750 mmHg 68%
    11:00 +14°C° 0 mm 3 m/s 750 mmHg 61%
    12:00 +17°C° 0 mm 3 m/s 750 mmHg 53%
    13:00 +17°C° 0 mm 4 m/s 750 mmHg 51%
    14:00 +17°C° 0 mm 4 m/s 750 mmHg 49%
    15:00 +18°C° 0 mm 4 m/s 749 mmHg 47%
    16:00 +17°C° 0 mm 4 m/s 748 mmHg 51%
    17:00 +15°C° 0 mm 4 m/s 748 mmHg 55%
    18:00 +14°C° 0 mm 3 m/s 747 mmHg 59%
    19:00 +14°C° 0 mm 4 m/s 747 mmHg 58%
    20:00 +13°C° 0 mm 5 m/s 747 mmHg 57%
    21:00 +13°C° 0 mm 5 m/s 747 mmHg 56%
    22:00 +13°C° 0 mm 6 m/s 746 mmHg 54%
    23:00 +14°C° 0 mm 6 m/s 746 mmHg 52%

    Mâine, 25 Septembrie, Marţi

    Timp Temperatura Precipitaţii Vânt Presiune Umiditate
    00:00 +14°C° 0 mm 7 m/s 745 mmHg 49%
    01:00 +14°C° 0 mm 7 m/s 744 mmHg 49%
    02:00 +14°C° 0 mm 7 m/s 744 mmHg 49%
    03:00 +14°C° 0 mm 7 m/s 743 mmHg 49%
    04:00 +13°C° 0.2 mm 6 m/s 743 mmHg 57%
    05:00 +13°C° 0.2 mm 6 m/s 743 mmHg 66%
    06:00 +13°C° 0.2 mm 6 m/s 742 mmHg 74%
    07:00 +12°C° 1.4 mm 5 m/s 742 mmHg 79%
    08:00 +12°C° 1.4 mm 5 m/s 743 mmHg 84%
    09:00 +10°C° 1.4 mm 5 m/s 743 mmHg 88%
    10:00 +10°C° 1.2 mm 5 m/s 743 mmHg 85%
    11:00 +10°C° 1.2 mm 5 m/s 744 mmHg 81%
    12:00 +10°C° 1.2 mm 5 m/s 744 mmHg 78%
    13:00 +10°C° 0 mm 5 m/s 744 mmHg 75%
    14:00 +10°C° 0 mm 5 m/s 745 mmHg 72%
    15:00 +10°C° 0 mm 5 m/s 745 mmHg 69%
    16:00 +10°C° 0 mm 5 m/s 745 mmHg 70%
    17:00 +11°C° 0 mm 4 m/s 746 mmHg 71%
    18:00 +10°C° 0 mm 3 m/s 746 mmHg 72%
    19:00 +10°C° 0 mm 3 m/s 747 mmHg 75%
    20:00 +9°C° 0 mm 3 m/s 747 mmHg 78%
    21:00 +7°C° 0 mm 4 m/s 748 mmHg 81%
    22:00 +7°C° 0 mm 4 m/s 748 mmHg 83%
    23:00 +6°C° 0 mm 4 m/s 749 mmHg 85%

    Poimâine, 26 Septembrie, Miercuri

    Timp Temperatura Precipitaţii Vânt Presiune Umiditate
    00:00 +6°C° 0 mm 4 m/s 749 mmHg 86%
    01:00 +6°C° 0 mm 4 m/s 750 mmHg 87%
    02:00 +5°C° 0 mm 4 m/s 750 mmHg 87%
    03:00 +5°C° 0 mm 4 m/s 751 mmHg 87%
    04:00 +5°C° 0 mm 4 m/s 751 mmHg 88%
    05:00 +4°C° 0 mm 4 m/s 752 mmHg 88%
    06:00 +4°C° 0 mm 4 m/s 753 mmHg 89%
    07:00 +5°C° 0 mm 4 m/s 753 mmHg 84%
    08:00 +6°C° 0 mm 5 m/s 754 mmHg 78%
    09:00 +7°C° 0 mm 5 m/s 755 mmHg 73%
    10:00 +8°C° 0 mm 5 m/s 755 mmHg 69%
    11:00 +9°C° 0 mm 5 m/s 756 mmHg 64%
    12:00 +10°C° 0 mm 5 m/s 756 mmHg 60%
    13:00 +10°C° 0 mm 5 m/s 756 mmHg 58%
    14:00 +11°C° 0 mm 4 m/s 757 mmHg 57%
    15:00 +11°C° 0 mm 4 m/s 757 mmHg 55%
    16:00 +10°C° 0 mm 3 m/s 757 mmHg 59%
    17:00 +9°C° 0 mm 3 m/s 757 mmHg 62%
    18:00 +8°C° 0 mm 2 m/s 757 mmHg 65%
    19:00 +8°C° 0 mm 2 m/s 758 mmHg 67%
    20:00 +7°C° 0 mm 2 m/s 758 mmHg 68%
    21:00 +7°C° 0 mm 2 m/s 758 mmHg 69%
    22:00 +6°C° 0 mm 2 m/s 758 mmHg 70%
    23:00 +6°C° 0 mm 2 m/s 758 mmHg 71%

    27 Septembrie, Joi

    Timp Temperatura Precipitaţii Vânt Presiune Umiditate
    00:00 +5°C° 0 mm 2 m/s 758 mmHg 71%
    01:00 +5°C° 0 mm 2 m/s 757 mmHg 72%
    02:00 +5°C° 0 mm 2 m/s 757 mmHg 72%
    03:00 +3°C° 0 mm 3 m/s 757 mmHg 73%
    04:00 +3°C° 0 mm 3 m/s 757 mmHg 74%
    05:00 +3°C° 0 mm 4 m/s 756 mmHg 74%
    06:00 +3°C° 0 mm 4 m/s 756 mmHg 75%
    07:00 +3°C° 0 mm 5 m/s 756 mmHg 69%
    08:00 +5°C° 0 mm 6 m/s 755 mmHg 63%
    09:00 +6°C° 0 mm 7 m/s 755 mmHg 57%
    10:00 +6°C° 0.1 mm 8 m/s 754 mmHg 57%
    11:00 +6°C° 0.1 mm 8 m/s 754 mmHg 56%
    12:00 +6°C° 0.1 mm 9 m/s 753 mmHg 56%
    13:00 +7°C° 0.3 mm 8 m/s 753 mmHg 57%
    14:00 +7°C° 0.3 mm 8 m/s 752 mmHg 58%
    15:00 +7°C° 0.3 mm 8 m/s 752 mmHg 59%
    16:00 +8°C° 0.2 mm 7 m/s 752 mmHg 63%
    17:00 +8°C° 0.2 mm 7 m/s 752 mmHg 67%
    18:00 +7°C° 0.2 mm 6 m/s 751 mmHg 71%
    19:00 +7°C° 0.1 mm 5 m/s 751 mmHg 74%
    20:00 +7°C° 0.1 mm 5 m/s 751 mmHg 77%
    21:00 +7°C° 0.1 mm 5 m/s 751 mmHg 80%
    22:00 +7°C° 0.2 mm 5 m/s 751 mmHg 82%
    23:00 +7°C° 0.2 mm 5 m/s 751 mmHg 84%

    28 Septembrie, Vineri

    Timp Temperatura Precipitaţii Vânt Presiune Umiditate
    00:00 +7°C° 0.2 mm 4 m/s 751 mmHg 86%
    01:00 +8°C° 0 mm 4 m/s 751 mmHg 86%
    02:00 +8°C° 0 mm 4 m/s 751 mmHg 87%
    03:00 +8°C° 0 mm 4 m/s 750 mmHg 87%
    04:00 +8°C° 0 mm 5 m/s 750 mmHg 87%
    05:00 +8°C° 0 mm 5 m/s 750 mmHg 87%
    06:00 +8°C° 0 mm 5 m/s 750 mmHg 87%
    07:00 +9°C° 0 mm 6 m/s 749 mmHg 84%
    08:00 +10°C° 0 mm 7 m/s 749 mmHg 81%
    09:00 +11°C° 0 mm 7 m/s 749 mmHg 77%
    10:00 +13°C° 0 mm 8 m/s 749 mmHg 73%
    11:00 +15°C° 0 mm 8 m/s 748 mmHg 69%
    12:00 +17°C° 0 mm 9 m/s 748 mmHg 65%
    13:00 +17°C° 0 mm 9 m/s 748 mmHg 64%
    14:00 +17°C° 0 mm 8 m/s 747 mmHg 63%
    15:00 +18°C° 0 mm 8 m/s 747 mmHg 62%
    16:00 +17°C° 0.1 mm 7 m/s 747 mmHg 64%
    17:00 +17°C° 0.1 mm 7 m/s 747 mmHg 66%
    18:00 +16°C° 0.1 mm 6 m/s 747 mmHg 68%
    19:00 +16°C° 0.2 mm 6 m/s 748 mmHg 73%
    20:00 +15°C° 0.2 mm 5 m/s 748 mmHg 77%
    21:00 +14°C° 0.2 mm 4 m/s 749 mmHg 82%
    22:00 +13°C° 0 mm 4 m/s 749 mmHg 84%
    23:00 +12°C° 0 mm 3 m/s 750 mmHg 85%

    29 Septembrie, Sâmbătă

    Timp Temperatura Precipitaţii Vânt Presiune Umiditate
    00:00 +12°C° 0 mm 2 m/s 750 mmHg 87%
    01:00 +10°C° 0 mm 2 m/s 751 mmHg 88%
    02:00 +9°C° 0 mm 2 m/s 751 mmHg 89%
    03:00 +10°C° 0 mm 1 m/s 752 mmHg 89%
    04:00 +9°C° 0 mm 1 m/s 752 mmHg 89%
    05:00 +9°C° 0 mm 1 m/s 752 mmHg 89%
    06:00 +8°C° 0 mm 1 m/s 753 mmHg 89%
    07:00 +10°C° 0 mm 1 m/s 753 mmHg 82%
    08:00 +11°C° 0 mm 1 m/s 753 mmHg 75%
    09:00 +12°C° 0 mm 1 m/s 754 mmHg 68%
    10:00 +13°C° 0 mm 1 m/s 754 mmHg 62%
    11:00 +14°C° 0 mm 1 m/s 754 mmHg 57%
    12:00 +15°C° 0 mm 1 m/s 754 mmHg 51%
    13:00 +15°C° 0 mm 1 m/s 754 mmHg 49%
    14:00 +16°C° 0 mm 1 m/s 754 mmHg 48%
    15:00 +16°C° 0 mm 1 m/s 753 mmHg 47%
    16:00 +15°C° 0 mm 2 m/s 754 mmHg 51%
    17:00 +14°C° 0 mm 2 m/s 754 mmHg 56%
    18:00 +13°C° 0 mm 2 m/s 754 mmHg 60%
    19:00 +12°C° 0.1 mm 3 m/s 754 mmHg 62%
    20:00 +11°C° 0.1 mm 4 m/s 755 mmHg 65%
    21:00 +10°C° 0.1 mm 5 m/s 755 mmHg 67%
    22:00 +9°C° 0.7 mm 5 m/s 755 mmHg 70%
    23:00 +8°C° 0.7 mm 5 m/s 755 mmHg 74%
    Arată mai mult

    3.3.7123123